Regional Weather Roundup
Issued by NWS

Home | Current Version | Previous Version | Graphics & Text | Print | Product List | Glossary On
Versions: 1 2 3 4 5 6 7 8 9 10 11 12 13 14 15 16 17 18 19 20 21 22 23 24 25 26 27 28 29 30 31 32 33 34 35 36 37 38 39 40 41 42 43 44 45 46 47 48 49 50
000
ASUS43 KOAX 051002
RWRNE

WEATHER ROUNDUP FOR NEBRASKA
NATIONAL WEATHER SERVICE OMAHA NE
500 AM CDT SUN JUL 05 2015

NOTES: SATELLITE DATA IS BEING USED TO AUGMENT CLOUD COVER ABOVE
       12000 FEET.
       "FAIR" INDICATES FEW OR NO CLOUDS BELOW 12,000 FEET WITH NO
       SIGNIFICANT WEATHER AND/OR OBSTRUCTIONS TO VISIBILITY.

  * THESE STATIONS DO NOT REPORT WEATHER SUCH AS RAIN...SNOW OR FOG.

NEZ001>004-019>022-054>056-051100-
NEBRASKA PANHANDLE

CITY           SKY/WX    TMP DP  RH WIND       PRES   REMARKS
SCOTTSBLUFF    CLEAR     64  60  87 NE3       29.87R
ALLIANCE       PTCLDY    68  63  84 SE8       29.86F
CHADRON        CLEAR     64  61  90 CALM      29.80F
KIMBALL          N/A    N/A N/A N/A MISG        N/A
SIDNEY         PTCLDY    63  59  87 VRB6      29.89F
$$

NEZ057>060-069>072-079>082-051100-
SOUTHWEST NEBRASKA

CITY           SKY/WX    TMP DP  RH WIND       PRES   REMARKS
NORTH PLATTE   CLEAR     72  64  76 E10       29.85F
IMPERIAL       PTCLDY    70  62  76 S9        29.86S
LEXINGTON      MOCLDY    73  65  77 S13       29.85S
MCCOOK         PTCLDY    76  64  66 S13       29.84F
$$

NEZ005>010-023>029-035>040-094-051100-
NORTH CENTRAL NEBRASKA

CITY           SKY/WX    TMP DP  RH WIND       PRES   REMARKS
VALENTINE      CLEAR     78  50  37 SW14      29.76F
AINSWORTH      PTCLDY    79  54  42 SW14      29.77S
BROKEN BOW     CLOUDY    73  64  73 S8        29.85F
O`NEILL        PTCLDY    69  66  90 SW10      29.85R THUNDER
ORD            CLOUDY    72  62  71 SE6       29.83F
$$

NEZ041-046>049-061>064-073>077-083>087-051100-
SOUTH CENTRAL NEBRASKA

CITY           SKY/WX    TMP DP  RH WIND       PRES   REMARKS
GRAND ISLAND   CLOUDY    71  64  78 S16G22    29.87F
AURORA         MOCLDY    71  65  83 S16       29.88F
HASTINGS       CLOUDY    71  64  78 S10       29.88F
KEARNEY *      CLOUDY    72  63  73 S12G17    29.87S
$$

NEZ011>018-030>034-042>045-051100-
NORTHEAST NEBRASKA

CITY           SKY/WX    TMP DP  RH WIND       PRES   REMARKS
NORFOLK        CLOUDY    71  64  78 S14       29.84F
BLAIR          PTCLDY    68  62  80 S10       29.91F
COLUMBUS *     MOCLDY    70  61  73 S13       29.85F
FREMONT        PTCLDY    69  63  80 SE12      29.90F
TEKAMAH        PTCLDY    66  62  87 S6        29.89F
$$

NEZ050>053-065>068-078-088>093-051100-
SOUTHEAST NEBRASKA

CITY           SKY/WX    TMP DP  RH WIND       PRES   REMARKS
LINCOLN        PTCLDY    69  65  86 S8        29.91S
OMAHA EPPLEY   PTCLDY    70  63  78 S15       29.92F
FALLS CITY     MOCLDY    65  63  93 SE3       29.95R
PLATTSMOUTH    PTCLDY    67  62  84 SE10      29.93S
$$

NEZ044-045-051>053-067-051100-
OMAHA AREA

CITY           SKY/WX    TMP DP  RH WIND       PRES   REMARKS
OMAHA EPPLEY   PTCLDY    70  63  78 S15       29.92F
BLAIR          PTCLDY    68  62  80 S10       29.91F
FREMONT        PTCLDY    69  63  80 SE12      29.90F
MILLARD        PTCLDY    68  64  85 SE7       29.91F
OFFUTT AFB     PTCLDY    66  63  91 E7        29.91F
PLATTSMOUTH    PTCLDY    67  62  84 SE10      29.93S
$$


USA.gov is the U.S. government's official web portal to all federal, state and local government web resources and services.